Location: B�rgermoos
(47.6500°N, 9.0667°E)
Time: 00:43:55
(UTC+00:00)

Tiros 1 - Pass Details

Date: 04 August 2021
Orbit: 630 x 663 km, 48.4° (Epoch: 16 September)

Event Time Altitude Azimuth Distance (km) Brightness Sun altitude
Rises 17:38:50 0° 252° (WSW) 2,985 11.7 11.0°
Reaches altitude 10° 17:41:11 10° 252° (WSW) 2,071 10.9 10.6°
Maximum altitude 17:45:58 83° 165° (SSE) 666 7.4 9.9°
Drops below altitude 10° 17:50:44 10° 78° (ENE) 2,056 9.2 9.1°
Sets 17:53:03 0° 78° (ENE) 2,962 10.0 8.7°
